Cloud_Cover
0 0 7 11 39 91 72 98 17 5 5 4 2 4 0 8 99 20 0 0 0 0 4 0 0 11 3 0 10 5 0 7 21 6 5 5 5 6 5 5 5 5 5
0 0 0 0 3 3 14 98 98 8 5 0 5 3 1 1 98 36 0 0 0 0 0 0 0 0 0 0 11 43 2 19 0 0 50 0 0 0 0 0 0 0 0
0 0 0 0 0 1 4 0 13 5 0 0 1 5 2 77 100 15 5 0 0 0 0 0 0 0 1 4 0 14 3 1 0 0 0 0 0 0 0 0 14 10 9
0 0 0 0 0 0 0 0 0 4 0 0 4 4 72 46 100 52 6 0 0 0 0 0 0 0 0 0 0 0 0 0 0 0 0 0 0 18 52 36 29 89 86
0 0 0 0 0 0 0 0 0 0 0 0 0 18 4 11 69 100 28 1 0 0 0 1 8 2 0 0 0 0 0 0 0 0 0 2 10 94 39 82 52 6 52
0 0 0 0 0 0 0 0 0 0 0 3 2 0 5 44 5 96 0 0 0 0 0 0 14 0 1 0 0 0 0 0 0 3 8 83 100 98 66 16 10 8 10
0 0 0 0 0 0 0 0 0 0 4 1 5 5 1 4 5 5 4 0 0 2 0 2 5 0 0 32 0 1 0 0 9 2 77 100 100 54 17 1 0 0 4
0 0 0 0 0 0 0 0 0 0 0 5 6 14 5 3 4 5 5 4 2 5 5 0 0 0 0 0 0 0 0 0 38 90 99 100 68 18 10 0 0 0 0
0 0 0 0 0 0 0 0 0 0 0 0 5 44 5 5 5 5 5 5 5 39 46 5 5 5 0 9 1 11 0 0 8 100 100 100 100 4 2 0 0 0 0
0 0 0 0 0 0 0 0 0 0 0 0 0 5 39 2 18 30 5 5 17 6 80 43 76 43 5 5 6 28 21 0 0 21 98 84 36 20 1 0 3 5 0
0 0 0 0 0 0 0 0 0 0 0 0 1 0 4 60 7 42 71 7 22 100 94 99 100 99 23 14 5 24 5 5 4 3 0 2 4 5 2 0 4 36 0
0 0 0 0 0 0 0 0 0 0 0 0 0 24 1 4 65 5 10 84 97 79 100 100 100 98 6 17 8 46 100 49 5 5 5 5 5 5 19 79 1 12 1
0 0 0 0 0 0 0 0 13 14 30 39 8 4 33 18 30 52 22 26 100 100 100 100 100 100 100 96 64 8 33 100 8 18 99 73 6 5 84 14 56 22 93
0 0 0 0 0 0 0 2 0 18 29 42 52 62 40 64 64 42 38 93 99 100 100 100 100 100 100 100 100 100 97 73 46 100 100 87 83 36 94 84 5 26 100
0 0 0 0 0 0 0 4 3 97 94 92 100 46 100 93 83 75 39 81 100 100 91 100 100 100 100 100 100 100 100 100 85 100 100 100 100 100 100 100 8 90 100
0 0 0 0 0 0 3 0 6 27 6 17 92 100 93 100 96 98 78 43 90 100 97 80 100 100 100 100 100 100 100 100 100 100 100 100 100 100 100 100 100 32 96
0 0 0 0 0 6 0 0 9 24 16 10 82 100 67 100 100 100 100 93 84 100 100 100 98 100 100 100 100 100 100 100 100 100 100 100 100 100 100 100 93 100 87
0 0 0 0 0 11 7 1 5 21 31 28 63 100 100 17 96 100 100 100 90 100 100 100 99 100 100 100 100 100 100 100 95 100 100 100 100 100 100 100 100 100 100
0 0 0 0 0 7 6 3 5 3 17 15 12 27 44 55 18 100 100 100 100 100 46 100 100 100 100 100 100 100 100 98 100 100 100 98 91 100 100 100 100 100 100
0 0 0 0 0 17 23 27 43 50 98 87 40 26 8 1 27 99 92 100 100 100 100 76 100 100 100 100 100 100 100 100 92 100 100 100 91 100 100 100 100 100 100
0 0 0 0 2 90 100 100 97 66 25 100 100 67 30 18 0 15 26 100 96 100 100 100 100 100 100 100 100 100 100 100 100 100 100 100 100 100 100 100 100 100 100
0 0 0 2 38 100 100 100 82 77 100 97 76 100 100 38 16 22 42 32 92 100 100 100 100 100 100 100 100 100 100 100 100 100 100 100 100 100 100 100 100 100 96
0 0 0 1 30 96 93 37 96 78 89 76 83 37 100 99 44 30 28 5 88 100 97 100 100 100 100 100 100 100 100 100 100 100 100 100 100 100 100 100 100 83 76
5 0 0 2 26 28 31 38 62 100 100 100 39 66 100 100 79 47 50 4 84 100 99 100 100 100 100 100 100 100 100 100 100 100 100 100 100 100 100 100 100 89 99
5 2 0 0 9 2 42 41 82 100 100 100 100 100 100 55 87 84 47 36 66 98 100 100 100 100 100 100 100 100 100 100 100 100 100 100 100 100 100 100 100 100 100
64 6 6 22 15 24 48 97 85 94 100 100 100 90 100 76 93 100 96 100 97 100 100 100 89 100 100 100 100 100 100 100 100 100 86 96 100 100 100 100 100 100 100